Showing default

LEMUR 2 THERMORAPTOR, 63354

Orbit data source: Space-Track

LEMUR 2 THERMORAPTOR, 63354 is a payload satellite owned by OroraTech (US) in SSO that was launched on Wed, 26 Mar 2025 UTC via an ELECTRON launch vehicle from the Rocket Lab Launch Complex (RLLC). Payload-class satellites include a variety of spacecraft equipped with specific instruments for various scientific and technological missions. These include communications satellites like Starlink; space stations such as the ISS; scientific satellites like the Hubble; Earth observation satellites from companies like Planet Labs, Umbra, and HawkEye 360; GPS; miniature CubeSats for education and research; and military/defense satellites.

Loading next visibility...
Identifier
63354, 2025-061D
Orbit
SSO
Country
Flag of USUS
Related business
Manufacturer
Spire/Glasgow
Mission
Operational Commercial Imaging
Bus & Motor
CUBESAT 8U, Unknown motor
Mass
~15 kg wet, ~15 kg dry
Launch date (UTC)
2025-03-26 (1 year ago)
Launch vehicle
ELECTRON
Launch site
Rocket Lab Launch Complex (RLLC)
Object type
Payload
Rocket body
Debris
Shape & HBR
Box + 2 Pan, 0.2 m
Radar Cross Section
0.070 m², Medium (>0.1 m² and < 1m²)

Expand to show TLE details & history
Last TLE update: 17 hours ago

TLE from 17 hours ago
0 LEMUR 2 THERMORAPTOR
1 63354U 25061D   26264.87487832  .00002797  00000-0  15432-3 0  9995
2 63354  97.5812 240.4974 0016996 283.7831  76.1509 15.14690949 82240
Epoch: 2026-09-21T20:59Z
TLE epoch observation values (Epoch: 2026-09-21T20:59:49.486Z)
Latitude
-0.00006°
Longitude
-75.20722°
Altitude
522.206 km
Speed
7.604 km/s
True Right ascension
16h 01m 59s
True Declination
0° 00' 00"
Sunlit
Object was in daylight at epoch
Visualization orbit readout
Latitude
Unknown
Longitude
Unknown
Altitude
Unknown
Speed
Unknown
Apparent Right ascension
Unknown
Apparent Declination
Unknown
Sunlit
N/A
Visualization observer readout
Local Sidereal Time
06:49:36
Azimuth
Unknown
Elevation
Unknown
Doppler factor
Unknown
Orbital elements
Apogee altitude
530.62 km
Perigee altitude
507.175 km
Semi-major axis
6,897.034 km
Eccentricity
0.0017
Inclination
97.5812°
RAAN
240.4974°
Arg. of periapsis
283.7831°
True anomaly
76.34009°
Mean anomaly
76.1509°
Eccentric anomaly
76.24549°
Mean motion
3.78922 °/min
Orbital period
95.01 mins
BSTAR
0.00015432
Loading maneuver chart data...
Computing Atmospheric mass density...
Loading historical data...
Loading historical data...
Loading historical data...
Loading historical data...
Loading historical data...
Loading historical data...
Loading historical data...

Documentation

Showing up to 5 results
|